Dewpoint
19 20 20 21 22 22 23 23 24 25 27 30 32 36 39 42 39 39 40 40 46 48 47 48 48 49 49 50 50 53 53 50 49 48 47 46 46 45 46 47 48 48 49
17 18 18 18 20 21 22 22 23 23 24 28 30 33 35 39 37 35 36 37 37 38 40 44 46 46 48 48 51 53 51 50 49 48 47 44 44 45 45 46 46 47 48
15 16 15 16 17 19 19 22 22 23 23 24 27 30 31 32 31 31 32 33 33 34 34 36 38 42 45 46 50 52 50 49 49 49 46 42 41 43 44 44 45 46 47
14 14 14 14 14 15 18 20 20 21 23 23 23 24 26 27 28 29 30 30 30 31 30 32 33 36 39 41 45 49 52 49 48 48 48 47 43 40 39 42 44 45 45
11 12 12 11 12 13 15 16 17 19 20 23 22 23 23 25 25 26 26 27 28 29 28 29 30 32 35 36 36 41 47 51 49 48 47 47 47 42 40 38 40 43 44
9 8 9 9 9 9 11 12 15 15 16 19 21 21 22 22 22 23 23 24 26 28 27 27 28 30 31 34 36 36 40 45 51 51 49 48 46 45 42 40 40 39 41
6 5 4 4 6 6 7 8 11 12 13 14 17 19 19 21 21 22 23 22 23 24 25 26 27 28 30 31 35 35 35 38 41 47 51 51 50 49 46 44 42 38 39
4 4 3 4 4 5 7 8 9 10 11 11 13 16 16 16 17 18 18 19 21 23 23 24 25 27 29 30 31 36 35 34 35 38 42 46 49 50 49 45 43 39 37
3 3 3 4 5 6 7 8 9 8 10 11 11 13 15 15 14 14 14 15 16 15 18 20 22 24 26 28 30 32 34 34 35 35 34 38 44 47 48 47 45 43 40
3 3 4 5 5 6 6 8 8 9 8 11 11 10 12 14 14 11 13 13 14 15 15 16 17 21 22 24 26 29 33 33 35 35 35 34 35 39 46 47 47 44 43
4 4 5 6 6 7 7 8 7 8 8 9 10 9 10 13 12 10 10 13 13 14 15 14 16 18 18 20 23 26 28 30 32 34 35 36 36 34 35 43 45 45 43
5 5 5 6 6 6 6 7 7 7 8 8 9 8 8 9 10 8 9 12 11 12 13 13 15 15 16 17 19 23 26 26 26 29 32 34 35 35 36 35 34 42 44
6 4 3 3 2 2 3 3 4 4 6 7 7 7 6 7 7 7 8 10 9 10 10 11 12 13 14 15 16 21 24 26 25 26 27 29 33 33 34 35 36 35 36
2 -1 -3 -5 -7 -8 -7 -4 -3 -2 0 2 2 1 2 3 4 4 4 6 6 6 7 8 9 10 12 13 16 19 22 24 23 22 23 26 29 30 32 34 34 36 35
-5 -7 -9 -9 -10 -9 -7 -6 -8 -6 -8 -4 -4 -2 -2 -1 -1 -1 0 1 1 3 3 5 6 6 8 14 15 17 17 20 18 19 20 22 25 29 33 33 33 34 34
-5 -5 -7 -10 -9 -10 -7 -2 -3 -4 -7 -4 -4 -3 -3 -3 -3 -2 -1 -1 -0 0 -0 1 2 3 9 15 18 19 16 15 14 14 15 18 23 26 29 30 33 35 32
-9 -7 -7 -6 -5 -5 -1 -3 -3 -4 -3 -4 -2 -1 0 -1 -0 0 -0 0 -1 -0 1 2 2 3 2 14 17 18 16 10 9 11 14 16 21 21 23 26 29 30 34
-8 -5 -7 -6 -6 -8 -6 -5 -4 -3 -2 -1 -1 1 2 0 0 1 -0 -1 0 0 2 1 3 4 7 12 15 16 13 12 11 10 11 13 14 17 21 24 26 27 29
-9 -9 -7 -7 -7 -6 -5 -6 -4 -5 -6 -4 -3 -0 -1 -2 -2 -3 -4 -3 -1 -3 -2 -2 1 -1 -1 10 13 13 10 9 11 13 12 12 14 19 21 22 26 26 26
-7 -5 -4 -6 -11 -6 -6 -8 -5 -5 -5 -3 -1 -4 -4 -5 -6 -7 -6 -4 -5 -6 -5 -5 -4 2 -2 8 11 10 6 6 6 7 8 15 15 19 20 19 21 24 23
-6 -5 -4 -6 -5 -3 -4 -3 -3 -3 -4 -7 -9 -9 -9 -9 -10 -11 -10 -10 -9 -7 -7 -7 -5 -4 -2 -1 10 12 4 4 5 8 10 11 17 18 18 19 18 20 24
-2 -2 -3 -3 -3 -2 -3 -4 -5 -6 -10 -10 -11 -11 -11 -12 -13 -12 -11 -10 -8 -9 -7 -6 -6 -5 -6 5 8 12 13 12 7 6 8 8 15 20 24 22 25 26 23
-1 -1 -2 -3 -3 -4 -4 -6 -6 -11 -11 -11 -12 -12 -12 -13 -12 -11 -9 -7 -9 -7 -7 -7 -6 -4 -4 -3 10 12 11 11 4 5 9 15 17 15 15 20 23 24 17
-3 -3 -4 -5 -6 -7 -7 -8 -11 -11 -11 -12 -12 -11 -11 -9 -7 -7 -8 -8 -6 -7 -7 -6 -3 -2 1 4 3 1 2 12 13 14 10 12 15 18 13 12 11 11 13
-4 -5 -6 -7 -8 -7 -10 -11 -11 -11 -11 -10 -9 -9 -9 -8 -8 -7 -6 -5 -4 -2 -0 5 8 7 6 6 10 14 9 9 11 11 12 12 9 8 8 9 10 10 12
-6 -7 -7 -7 -9 -10 -10 -10 -10 -10 -9 -8 -8 -8 -7 -5 -5 -4 -4 5 8 10 10 11 9 7 11 13 13 12 12 13 14 8 6 4 4 5 6 10 11 14 16
Lifted_Index
15 16 17 17 16 16 15 15 14 13 12 10 9 9 9 9 9 9 10 10 10 10 10 10 10 9 9 9 8 8 7 7 7 8 8 8 8 8 8 7 7 7 7
14 15 16 16 16 16 15 15 15 14 13 12 11 10 10 9 9 9 10 10 11 11 11 10 10 10 10 9 8 8 8 8 8 8 9 9 9 9 9 8 8 8 8
13 14 15 16 16 16 16 16 16 15 15 14 13 12 11 10 10 10 10 11 11 11 11 11 11 11 10 10 9 9 9 9 9 9 9 10 10 10 9 9 9 9 8
14 15 16 17 17 18 19 19 18 17 17 16 14 13 12 12 11 11 12 12 12 12 12 12 12 11 11 11 11 10 10 9 9 10 10 10 10 10 10 10 10 10 10
16 17 18 19 20 21 21 21 20 19 19 18 16 15 14 13 13 13 13 13 13 13 13 13 12 12 12 12 11 11 11 10 10 10 10 10 10 10 10 10 10 10 11
18 18 20 20 21 22 22 22 22 21 21 20 19 17 16 15 14 14 13 13 13 13 13 13 13 13 13 12 12 12 11 11 11 10 10 10 10 10 10 10 10 10 11
19 19 20 21 21 22 23 23 22 22 22 22 21 20 19 18 17 16 15 15 15 15 15 15 15 14 14 14 13 13 12 12 12 11 11 10 10 10 10 10 10 10 10
19 19 20 21 22 22 23 23 23 23 24 24 23 23 22 21 21 20 19 19 18 18 18 18 17 16 16 15 14 13 13 13 13 12 12 11 11 11 10 10 10 10 10
19 20 21 22 23 23 24 24 25 25 25 25 25 25 25 24 24 24 23 22 22 22 21 21 20 19 18 17 16 15 14 14 13 13 13 13 12 12 11 10 10 10 10
19 20 21 23 24 25 25 26 26 26 26 27 27 27 27 27 26 26 25 25 25 24 23 23 22 21 20 19 18 17 16 15 14 14 14 13 13 13 12 11 10 10 10
19 20 22 23 24 25 26 26 26 26 27 27 27 27 27 27 27 27 27 27 26 26 25 24 24 23 22 21 20 19 18 16 16 15 15 14 14 13 13 12 12 11 11
20 21 22 23 24 25 25 26 26 27 27 27 27 27 27 27 27 27 27 28 28 27 27 26 26 25 24 23 22 21 20 19 18 17 16 16 15 14 14 13 13 12 12
20 21 22 23 23 24 25 26 26 27 27 28 27 27 27 27 27 28 28 28 28 28 28 28 27 27 26 25 24 23 22 21 20 20 19 18 17 16 15 14 14 13 13
19 20 21 23 23 24 25 26 26 27 28 28 27 27 27 28 28 28 29 29 29 29 28 28 28 28 28 27 27 26 25 24 23 22 21 21 20 19 18 17 16 15 14
19 20 21 23 24 24 25 25 26 27 27 27 27 27 28 28 29 29 29 29 29 29 29 29 28 28 28 28 28 28 27 26 25 24 23 23 22 21 20 19 18 17 16
19 20 22 23 24 24 25 25 26 27 27 27 27 28 28 28 29 29 29 29 29 29 29 29 29 28 28 29 29 29 28 28 26 25 25 24 23 23 22 21 20 19 19
20 21 22 23 24 25 25 25 26 27 27 27 27 28 28 28 28 29 29 29 29 29 28 28 28 28 28 29 29 29 29 28 27 26 26 25 24 24 23 22 21 20 20
22 22 23 24 24 25 26 26 26 26 26 26 26 27 27 27 27 27 27 27 27 27 27 27 27 27 27 27 27 27 27 27 26 26 26 25 25 24 23 22 21 20 20
23 23 24 24 25 25 26 25 25 25 25 25 25 25 25 25 25 24 24 25 25 24 24 25 25 25 25 25 25 25 24 24 24 24 24 24 23 23 22 22 21 20 19
23 23 24 24 24 25 24 24 23 23 23 23 23 24 24 23 23 23 23 23 23 23 23 23 23 24 24 24 24 23 22 22 22 22 22 21 21 21 20 20 19 19 18
22 22 22 22 22 23 23 22 21 21 22 22 22 22 22 22 22 22 22 22 22 22 22 22 22 23 23 23 23 22 21 21 20 20 20 20 19 19 18 18 18 17 17
20 20 20 20 21 21 21 20 20 21 21 21 21 21 21 21 21 21 20 20 20 20 20 20 20 21 21 22 21 21 20 19 19 19 19 19 18 17 17 16 16 16 15
19 19 19 18 19 20 20 19 19 20 20 19 19 19 19 19 19 19 19 18 18 18 17 17 18 18 19 20 20 19 18 18 18 18 18 18 17 17 17 16 16 15 15
18 18 18 17 17 18 18 18 18 19 18 18 17 17 17 17 18 18 17 17 16 16 16 16 17 17 18 18 17 17 17 16 16 17 17 17 17 17 17 17 16 16 15
17 17 17 16 16 17 17 17 17 17 16 16 16 16 16 16 16 16 16 16 16 16 16 16 16 16 16 16 16 15 15 15 15 15 16 16 16 17 17 17 16 16 16
17 17 16 16 16 16 16 16 16 16 15 15 14 15 15 15 15 15 15 15 16 16 16 15 15 15 15 15 15 14 14 14 14 15 16 16 16 16 16 16 16 16 15